Location: Pitton
(51.0667°N, 1.7000°W)
Time: 04:01:19
(UTC+00:00)

Cosmos 1939 Rocket - Pass Details

Date: 17 September 2019
Orbit: 534 x 583 km, 97.4° (Epoch: 17 October)

Event Time Altitude Azimuth Distance (km) Brightness Sun altitude
Rises 18:43:50 0° 160° (SSE) 2,681 6.0 -5.0°
Reaches altitude 10° 18:45:56 10° 158° (SSE) 1,791 5.1 -5.3°
Maximum altitude 18:49:47 73° 74° (ENE) 565 2.7 -5.9°
Drops below altitude 10° 18:53:39 10° 350° (N) 1,802 5.7 -6.5°
Sets 18:55:47 0° 349° (NNW) 2,700 6.7 -6.8°
